Home > Products > Valid Products > MTR

000
SAGM31 PGUM 022255
MTRGUM
METAR PGUM 022254Z 19003KT 10SM SCT023CB 28/26 A2983 RMK AO2 SLP093
CB E MOV N T02830256




000
SAGM31 PGUM 022255
MTRGUM
METAR PGUM 022254Z 19003KT 10SM SCT023CB 28/26 A2983 RMK AO2 SLP093
CB E MOV N T02830256





000
SAGM31 PGUM 022155
MTRGUM
METAR PGUM 022154Z AUTO 16003KT 10SM CLR 28/25 A2982 RMK AO2 SLP091
T02780250 TSNO





000
SAGM31 PGUM 022155
MTRGUM
METAR PGUM 022154Z AUTO 16003KT 10SM CLR 28/25 A2982 RMK AO2 SLP091
T02780250 TSNO




000
SAGM31 PGUM 022055
MTRGUM
METAR PGUM 022054Z 12004KT 10SM FEW020 27/25 A2981 RMK AO2 SLP086
T02670250 53017





000
SAGM31 PGUM 022055
MTRGUM
METAR PGUM 022054Z 12004KT 10SM FEW020 27/25 A2981 RMK AO2 SLP086
T02670250 53017




000
SAGM31 PGUM 021955
MTRGUM
METAR PGUM 021954Z 00000KT 10SM FEW025 26/24 A2978 RMK AO2 SLP075
T02610244




000
SAGM31 PGUM 021955
MTRGUM
METAR PGUM 021954Z 00000KT 10SM FEW025 26/24 A2978 RMK AO2 SLP075
T02610244





000
SAGM31 PGUM 021855
MTRGUM
METAR PGUM 021854Z 20004KT 10SM CLR 26/24 A2976 RMK AO2 SLP069
T02560244





000
SAGM31 PGUM 021855
MTRGUM
METAR PGUM 021854Z 20004KT 10SM CLR 26/24 A2976 RMK AO2 SLP069
T02560244




000
SAGM31 PGUM 021755
MTRGUM
METAR PGUM 021754Z 18004KT 10SM CLR 26/24 A2976 RMK AO2 SLP069 60001
T02610244 10261 20256 58018





000
SAGM31 PGUM 021755
MTRGUM
METAR PGUM 021754Z 18004KT 10SM CLR 26/24 A2976 RMK AO2 SLP069 60001
T02610244 10261 20256 58018




000
SAGM31 PGUM 021655
MTRGUM
METAR PGUM 021654Z 17003KT 10SM CLR 26/25 A2978 RMK AO2 SLP076
T02610250





000
SAGM31 PGUM 021655
MTRGUM
METAR PGUM 021654Z 17003KT 10SM CLR 26/25 A2978 RMK AO2 SLP076
T02610250




000
SAGM31 PGUM 021555
MTRGUM
METAR PGUM 021554Z 18003KT 10SM FEW010 SCT023 26/24 A2981 RMK AO2
SLP087 T02560244




000
SAGM31 PGUM 021555
MTRGUM
METAR PGUM 021554Z 18003KT 10SM FEW010 SCT023 26/24 A2981 RMK AO2
SLP087 T02560244





000
SAGM31 PGUM 021545
MTRGUM
SPECI PGUM 021544Z 20003KT 10SM FEW010 BKN023 BKN028 26/24 A2981 RMK
AO2




000
SAGM31 PGUM 021545
MTRGUM
SPECI PGUM 021544Z 20003KT 10SM FEW010 BKN023 BKN028 26/24 A2981 RMK
AO2





000
SAGM31 PGUM 021455
MTRGUM
METAR PGUM 021454Z 17003KT 10SM CLR 26/25 A2981 RMK AO2 RAE01 SLP087
P0000 60001 T02560250 58024





000
SAGM31 PGUM 021455
MTRGUM
METAR PGUM 021454Z 17003KT 10SM CLR 26/25 A2981 RMK AO2 RAE01 SLP087
P0000 60001 T02560250 58024




000
SAGM31 PGUM 021401
MTRGUM
METAR PGUM 021354Z COR 15003KT 10SM -RA FEW040 26/24 A2984 RMK AO2
RAB30 SLP096 403170250 P0000 T02560244




000
SAGM31 PGUM 021401
MTRGUM
METAR PGUM 021354Z COR 15003KT 10SM -RA FEW040 26/24 A2984 RMK AO2
RAB30 SLP096 403170250 P0000 T02560244





000
SAGM31 PGUM 021355
MTRGUM
METAR PGUM 021354Z 15003KT 10SM -RA FEW040 26/24 A2984 RMK AO2 RAB30
SLP096 403170250 P0000 T02560244 403280250




000
SAGM31 PGUM 021355
MTRGUM
METAR PGUM 021354Z 15003KT 10SM -RA FEW040 26/24 A2984 RMK AO2 RAB30
SLP096 403170250 P0000 T02560244 403280250





000
SAGM31 PGUM 021255
MTRGUM
METAR PGUM 021254Z 15004KT 10SM BKN042 BKN110 26/24 A2986 RMK AO2
RAE1155B25E53 SLP104 P0001 T02560244





000
SAGM31 PGUM 021255
MTRGUM
METAR PGUM 021254Z 15004KT 10SM BKN042 BKN110 26/24 A2986 RMK AO2
RAE1155B25E53 SLP104 P0001 T02560244




000
SAGM31 PGUM 021155
MTRGUM
METAR PGUM 021154Z 11006KT 10SM -RA FEW095 26/24 A2988 RMK AO2 RAB18
SLP111 60007 70017 T02560239 10294 20250 53013




000
SAGM31 PGUM 021155
MTRGUM
METAR PGUM 021154Z 11006KT 10SM -RA FEW095 26/24 A2988 RMK AO2 RAB18
SLP111 60007 70017 T02560239 10294 20250 53013





000
SAGM31 PGUM 021102
MTRGUM
SPECI PGUM 021101Z 14003KT 10SM FEW110 26/24 A2987 RMK AO2




000
SAGM31 PGUM 021102
MTRGUM
SPECI PGUM 021101Z 14003KT 10SM FEW110 26/24 A2987 RMK AO2





000
SAGM31 PGUM 021055
MTRGUM
METAR PGUM 021054Z 00000KT 10SM BKN024 BKN041 OVC075 26/24 A2987 RMK
AO2 TSB0956E50RAE45 SLP105 TS DSIPTD P0001 T02560239




000
SAGM31 PGUM 021055
MTRGUM
METAR PGUM 021054Z 00000KT 10SM BKN024 BKN041 OVC075 26/24 A2987 RMK
AO2 TSB0956E50RAE45 SLP105 TS DSIPTD P0001 T02560239





000
SAGM31 PGUM 020957
MTRGUM
SPECI PGUM 020956Z 19006KT 10SM -TSRA BKN024CB BKN041 OVC075 26/24
A2984 RMK AO2 TSB56 OCNL LTGICCC DSNT E TS NE MOV E P0000




000
SAGM31 PGUM 020957
MTRGUM
SPECI PGUM 020956Z 19006KT 10SM -TSRA BKN024CB BKN041 OVC075 26/24
A2984 RMK AO2 TSB56 OCNL LTGICCC DSNT E TS NE MOV E P0000





000
SAGM31 PGUM 020955
MTRGUM
METAR PGUM 020954Z 20007KT 10SM -RA BKN024 BKN041 OVC075 26/24 A2984
RMK AO2 RAB15E34B53 SLP098 OCNL LTGICCC DSNT E P0007 T02560244




000
SAGM31 PGUM 020955
MTRGUM
METAR PGUM 020954Z 20007KT 10SM -RA BKN024 BKN041 OVC075 26/24 A2984
RMK AO2 RAB15E34B53 SLP098 OCNL LTGICCC DSNT E P0007 T02560244





000
SAGM31 PGUM 020953
MTRGUM
SPECI PGUM 020952Z 20008KT 10SM BKN024 BKN047 OVC080 26/24 A2984 RMK
AO2 RAB15E34 OCNL LTGICCC DSNT E P0007




000
SAGM31 PGUM 020953
MTRGUM
SPECI PGUM 020952Z 20008KT 10SM BKN024 BKN047 OVC080 26/24 A2984 RMK
AO2 RAB15E34 OCNL LTGICCC DSNT E P0007





000
SAGM31 PGUM 020936
MTRGUM
SPECI PGUM 020935Z 17008KT 10SM SCT022 BKN049 OVC080 26/24 A2984 RMK
AO2 RAB15E34 P0007




000
SAGM31 PGUM 020936
MTRGUM
SPECI PGUM 020935Z 17008KT 10SM SCT022 BKN049 OVC080 26/24 A2984 RMK
AO2 RAB15E34 P0007





000
SAGM31 PGUM 020855
MTRGUM
METAR PGUM 020854Z 00000KT 10SM SCT022 BKN028 OVC075 28/25 A2982 RMK
AO2 SLP089 CB DSNT SW-W-NW-N MOV NE T02830250 53018





000
SAGM31 PGUM 020855
MTRGUM
METAR PGUM 020854Z 00000KT 10SM SCT022 BKN028 OVC075 28/25 A2982 RMK
AO2 SLP089 CB DSNT SW-W-NW-N MOV NE T02830250 53018




000
SAGM31 PGUM 020847
MTRGUM
SPECI PGUM 020846Z 18003KT 10SM BKN024 BKN029 OVC080 29/24 A2982 RMK
AO2 CB DSNT SW-W-NW-N MOV NE





000
SAGM31 PGUM 020847
MTRGUM
SPECI PGUM 020846Z 18003KT 10SM BKN024 BKN029 OVC080 29/24 A2982 RMK
AO2 CB DSNT SW-W-NW-N MOV NE




000
SAGM31 PGUM 020755
MTRGUM
METAR PGUM 020754Z 00000KT 10SM BKN070 29/24 A2979 RMK AO2 SLP078
T02890244





000
SAGM31 PGUM 020755
MTRGUM
METAR PGUM 020754Z 00000KT 10SM BKN070 29/24 A2979 RMK AO2 SLP078
T02890244




000
SAGM31 PGUM 020655
MTRGUM
METAR PGUM 020654Z 28006KT 10SM BKN070 28/24 A2977 RMK AO2 SLP073
T02830244




000
SAGM31 PGUM 020655
MTRGUM
METAR PGUM 020654Z 28006KT 10SM BKN070 28/24 A2977 RMK AO2 SLP073
T02830244





000
SAGM31 PGUM 020555
MTRGUM
METAR PGUM 020554Z 27008KT 10SM SCT055 29/25 A2976 RMK AO2 RAE05
SLP071 60009 P0005 T02890250 10328 20272 56005




000
SAGM31 PGUM 020555
MTRGUM
METAR PGUM 020554Z 27008KT 10SM SCT055 29/25 A2976 RMK AO2 RAE05
SLP071 60009 P0005 T02890250 10328 20272 56005





000
SAGM31 PGUM 020455
MTRGUM
METAR PGUM 020454Z 23006KT 3SM +RA BR FEW021 BKN043 BKN060 28/26
A2976 RMK AO2 TSE17RAB42 SLP071 P0002 T02790256 $




000
SAGM31 PGUM 020455
MTRGUM
METAR PGUM 020454Z 23006KT 3SM +RA BR FEW021 BKN043 BKN060 28/26
A2976 RMK AO2 TSE17RAB42 SLP071 P0002 T02790256 $





000
SAGM31 PGUM 020419
MTRGUM
SPECI PGUM 020418Z 27012KT 10SM SCT026CB 30/25 A2977 RMK AO2 TSE17
CB E STNRY $




000
SAGM31 PGUM 020419
MTRGUM
SPECI PGUM 020418Z 27012KT 10SM SCT026CB 30/25 A2977 RMK AO2 TSE17
CB E STNRY $





000
SAGM31 PGUM 020355
MTRGUM
METAR PGUM 020354Z 25010KT 10SM TS SCT002CB BKN049 31/25 A2977 RMK
AO2 TSB51 SLP073 TS E MOV NE T03060248 $





000
SAGM31 PGUM 020355
MTRGUM
METAR PGUM 020354Z 25010KT 10SM TS SCT002CB BKN049 31/25 A2977 RMK
AO2 TSB51 SLP073 TS E MOV NE T03060248 $




000
SAGM31 PGUM 020355
MTRGUM
METAR PGUM 020354Z 25010KT 10SM TS SCT002CB BKN049 31/25 A2977 RMK
AO2 TSB51 SLP073 TS E MOV NE T03060248 $




000
SAGM31 PGUM 020355
MTRGUM
METAR PGUM 020354Z 25010KT 10SM TS SCT002CB BKN049 31/25 A2977 RMK
AO2 TSB51 SLP073 TS E MOV NE T03060248 $





000
SAGM31 PGUM 020316
MTRGUM
SPECI PGUM 020315Z 25010KT 10SM SCT028 BKN036 BKN042 31/24 A2978 RMK
AO2




000
SAGM31 PGUM 020316
MTRGUM
SPECI PGUM 020315Z 25010KT 10SM SCT028 BKN036 BKN042 31/24 A2978 RMK
AO2





000
SAGM31 PGUM 020305
MTRGUM
SPECI PGUM 020304Z 27012KT 10SM BKN028 BKN036 BKN042 31/24 A2978 RMK
AO2




000
SAGM31 PGUM 020305
MTRGUM
SPECI PGUM 020304Z 27012KT 10SM BKN028 BKN036 BKN042 31/24 A2978 RMK
AO2





000
SAGM31 PGUM 020255
MTRGUM
METAR PGUM 020254Z 28012KT 10SM BKN030 BKN044 32/26 A2978 RMK AO2
SLP076 T03170256 58012




000
SAGM31 PGUM 020255
MTRGUM
METAR PGUM 020254Z 28012KT 10SM BKN030 BKN044 32/26 A2978 RMK AO2
SLP076 T03170256 58012





000
SAGM31 PGUM 020155
MTRGUM
METAR PGUM 020154Z 24008KT 10SM BKN034 BKN041 32/24 A2980 RMK AO2
SLP082 T03220244




000
SAGM31 PGUM 020155
MTRGUM
METAR PGUM 020154Z 24008KT 10SM BKN034 BKN041 32/24 A2980 RMK AO2
SLP082 T03220244





000
SAGM31 PGUM 020055
MTRGUM
METAR PGUM 020054Z VRB03KT 10SM SCT031 SCT049 32/24 A2981 RMK AO2
SLP084 T03170239




000
SAGM31 PGUM 020055
MTRGUM
METAR PGUM 020054Z VRB03KT 10SM SCT031 SCT049 32/24 A2981 RMK AO2
SLP084 T03170239





000
SAGM31 PGUM 012355
MTRGUM
METAR PGUM 012354Z 25007KT 10SM FEW023 30/24 A2981 RMK AO2 SLP087
T03000239 10311 20256 50003




000
SAGM31 PGUM 012355
MTRGUM
METAR PGUM 012354Z 25007KT 10SM FEW023 30/24 A2981 RMK AO2 SLP087
T03000239 10311 20256 50003





000
SAGM31 PGUM 012328
MTRGUM
SPECI PGUM 012327Z 25007KT 10SM SCT025 SCT029 BKN037 30/24 A2982 RMK
AO2




000
SAGM31 PGUM 012328
MTRGUM
SPECI PGUM 012327Z 25007KT 10SM SCT025 SCT029 BKN037 30/24 A2982 RMK
AO2





000
SAGM31 PGUM 012319
MTRGUM
SPECI PGUM 012318Z 27006KT 10SM BKN025 BKN035 30/24 A2982 RMK AO2




000
SAGM31 PGUM 012319
MTRGUM
SPECI PGUM 012318Z 27006KT 10SM BKN025 BKN035 30/24 A2982 RMK AO2





000
SAGM31 PGUM 012255
MTRGUM
METAR PGUM 012254Z 21005KT 10SM FEW023 SCT041 30/24 A2982 RMK AO2
SLP088 T03000244




000
SAGM31 PGUM 012155
MTRGUM
METAR PGUM 012154Z 00000KT 10SM CLR 29/25 A2982 RMK AO2 SLP088
T02890250




000
SAGM31 PGUM 012155
MTRGUM
METAR PGUM 012154Z 00000KT 10SM CLR 29/25 A2982 RMK AO2 SLP088
T02890250





000
SAGM31 PGUM 012055
MTRGUM
METAR PGUM 012054Z 00000KT 10SM CLR 27/24 A2980 RMK AO2 SLP083
T02670244 51009





000
SAGM31 PGUM 012055
MTRGUM
METAR PGUM 012054Z 00000KT 10SM CLR 27/24 A2980 RMK AO2 SLP083
T02670244 51009




000
SAGM31 PGUM 011955
MTRGUM
METAR PGUM 011954Z 00000KT 10SM CLR 26/24 A2979 RMK AO2 SLP081
T02610244





000
SAGM31 PGUM 011955
MTRGUM
METAR PGUM 011954Z 00000KT 10SM CLR 26/24 A2979 RMK AO2 SLP081
T02610244




000
SAGM31 PGUM 011855
MTRGUM
METAR PGUM 011854Z 00000KT 10SM CLR 26/24 A2978 RMK AO2 SLP077
T02610244




000
SAGM31 PGUM 011855
MTRGUM
METAR PGUM 011854Z 00000KT 10SM CLR 26/24 A2978 RMK AO2 SLP077
T02610244





000
SAGM31 PGUM 011755
MTRGUM
METAR PGUM 011754Z 00000KT 10SM CLR 26/24 A2977 RMK AO2 SLP074 60000
T02610244 10278 20261 55010




000
SAGM31 PGUM 011755
MTRGUM
METAR PGUM 011754Z 00000KT 10SM CLR 26/24 A2977 RMK AO2 SLP074 60000
T02610244 10278 20261 55010





000
SAGM31 PGUM 011655
MTRGUM
METAR PGUM 011654Z 00000KT 10SM CLR 27/25 A2977 RMK AO2 SLP073
T02670250





000
SAGM31 PGUM 011655
MTRGUM
METAR PGUM 011654Z 00000KT 10SM CLR 27/25 A2977 RMK AO2 SLP073
T02670250




000
SAGM31 PGUM 011555
MTRGUM
METAR PGUM 011554Z 00000KT 10SM CLR 27/25 A2978 RMK AO2 RAB15E29
SLP077 P0000 T02670250




000
SAGM31 PGUM 011555
MTRGUM
METAR PGUM 011554Z 00000KT 10SM CLR 27/25 A2978 RMK AO2 RAB15E29
SLP077 P0000 T02670250





000
SAGM31 PGUM 011455
MTRGUM
METAR PGUM 011454Z 00000KT 10SM FEW049 BKN060 27/25 A2980 RMK AO2
SLP084 T02670250 58009




000
SAGM31 PGUM 011455
MTRGUM
METAR PGUM 011454Z 00000KT 10SM FEW049 BKN060 27/25 A2980 RMK AO2
SLP084 T02670250 58009





000
SAGM31 PGUM 011355
MTRGUM
METAR PGUM 011354Z 00000KT 10SM FEW018 27/24 A2982 RMK AO2 SLP090
OCNL LTGICCC DSNT N MOV E T02670244 403170256




000
SAGM31 PGUM 011355
MTRGUM
METAR PGUM 011354Z 00000KT 10SM FEW018 27/24 A2982 RMK AO2 SLP090
OCNL LTGICCC DSNT N MOV E T02670244 403170256





000
SAGM31 PGUM 011255
MTRGUM
METAR PGUM 011254Z 00000KT 10SM FEW026 SCT038 BKN046 28/25 A2984 RMK
AO2 SLP096 T02780250





000
SAGM31 PGUM 011255
MTRGUM
METAR PGUM 011254Z 00000KT 10SM FEW026 SCT038 BKN046 28/25 A2984 RMK
AO2 SLP096 T02780250




000
SAGM31 PGUM 011155
MTRGUM
METAR PGUM 011154Z 00000KT 10SM FEW018 28/24 A2983 RMK AO2 SLP093
70001 T02780244 10306 20267 53016




000
SAGM31 PGUM 011155
MTRGUM
METAR PGUM 011154Z 00000KT 10SM FEW018 28/24 A2983 RMK AO2 SLP093
70001 T02780244 10306 20267 53016





000
SAGM31 PGUM 011055
MTRGUM
METAR PGUM 011054Z 00000KT 10SM FEW018 27/24 A2981 RMK AO2 SLP086
T02670244




000
SAGM31 PGUM 011055
MTRGUM
METAR PGUM 011054Z 00000KT 10SM FEW018 27/24 A2981 RMK AO2 SLP086
T02670244





000
SAGM31 PGUM 010955
MTRGUM
METAR PGUM 010954Z 00000KT 10SM FEW018 28/25 A2979 RMK AO2 SLP081
T02780250





000
SAGM31 PGUM 010955
MTRGUM
METAR PGUM 010954Z 00000KT 10SM FEW018 28/25 A2979 RMK AO2 SLP081
T02780250




000
SAGM31 PGUM 010855
MTRGUM
METAR PGUM 010854Z 26006KT 10SM FEW018 28/25 A2978 RMK AO2 SLP076 CB
DSNT E MOV E T02780250 53006




000
SAGM31 PGUM 010855
MTRGUM
METAR PGUM 010854Z 26006KT 10SM FEW018 28/25 A2978 RMK AO2 SLP076 CB
DSNT E MOV E T02780250 53006





000
SAGM31 PGUM 010755
MTRGUM
METAR PGUM 010754Z 26007KT 10SM FEW018 29/24 A2977 RMK AO2 SLP072
T02890244




000
SAGM31 PGUM 010755
MTRGUM
METAR PGUM 010754Z 26007KT 10SM FEW018 29/24 A2977 RMK AO2 SLP072
T02890244





000
SAGM31 PGUM 010655
MTRGUM
METAR PGUM 010654Z 25007KT 10SM FEW020 SCT060 29/25 A2976 RMK AO2
SLP070 T02940250




000
SAGM31 PGUM 010655
MTRGUM
METAR PGUM 010654Z 25007KT 10SM FEW020 SCT060 29/25 A2976 RMK AO2
SLP070 T02940250





000
SAGM31 PGUM 010555
MTRGUM
METAR PGUM 010554Z 28009KT 10SM FEW020 SCT060 31/25 A2976 RMK AO2
SLP070 CB DSNT E AND SW MOV E 60001 T03060250 10317 20278 58008





000
SAGM31 PGUM 010555
MTRGUM
METAR PGUM 010554Z 28009KT 10SM FEW020 SCT060 31/25 A2976 RMK AO2
SLP070 CB DSNT E AND SW MOV E 60001 T03060250 10317 20278 58008




000
SAGM31 PGUM 010455
MTRGUM
METAR PGUM 010454Z 28009KT 10SM FEW018 SCT025 SCT065 31/26 A2977 RMK
AO2 TSE17 SLP073 CB DSNT SW AND NE MOV NE T03110256




000
SAGM31 PGUM 010455
MTRGUM
METAR PGUM 010454Z 28009KT 10SM FEW018 SCT025 SCT065 31/26 A2977 RMK
AO2 TSE17 SLP073 CB DSNT SW AND NE MOV NE T03110256





000
SAGM31 PGUM 010428
MTRGUM
SPECI PGUM 010427Z 26010KT 10SM FEW018 SCT027 SCT065 30/24 A2977 RMK
AO2 TSE17 TS DSNT NE MOV NE




000
SAGM31 PGUM 010428
MTRGUM
SPECI PGUM 010427Z 26010KT 10SM FEW018 SCT027 SCT065 30/24 A2977 RMK
AO2 TSE17 TS DSNT NE MOV NE





000
SAGM31 PGUM 010418
MTRGUM
SPECI PGUM 010417Z 27012KT 10SM SCT016 BKN025 BKN040 30/26 A2977 RMK
AO2 TSE17 TS DSNT NE MOV NE




000
SAGM31 PGUM 010418
MTRGUM
SPECI PGUM 010417Z 27012KT 10SM SCT016 BKN025 BKN040 30/26 A2977 RMK
AO2 TSE17 TS DSNT NE MOV NE





000
SAGM31 PGUM 010355
MTRGUM
METAR PGUM 010354Z 29009KT 10SM TS FEW016CB SCT040 SCT080 31/26
A2978 RMK AO2 TSB40 SLP076 TS NE-E MOV NE CB SW-W MOV NE T03060256





000
SAGM31 PGUM 010355
MTRGUM
METAR PGUM 010354Z 29009KT 10SM TS FEW016CB SCT040 SCT080 31/26
A2978 RMK AO2 TSB40 SLP076 TS NE-E MOV NE CB SW-W MOV NE T03060256




000
SAGM31 PGUM 010341
MTRGUM
SPECI PGUM 010340Z 29010KT 10SM TS FEW016CB SCT040 31/25 A2978 RMK
AO2 TSB40 TS NE-E MOV NE




000
SAGM31 PGUM 010341
MTRGUM
SPECI PGUM 010340Z 29010KT 10SM TS FEW016CB SCT040 31/25 A2978 RMK
AO2 TSB40 TS NE-E MOV NE





000
SAGM31 PGUM 010255
MTRGUM
METAR PGUM 010254Z 28012KT 10SM FEW025 SCT038 31/26 A2979 RMK AO2
SLP078 60001 T03110256 58015




000
SAGM31 PGUM 010255
MTRGUM
METAR PGUM 010254Z 28012KT 10SM FEW025 SCT038 31/26 A2979 RMK AO2
SLP078 60001 T03110256 58015





000
SAGM31 PGUM 010155
MTRGUM
METAR PGUM 010154Z VRB06KT 10SM FEW026 SCT030 BKN041 31/26 A2980 RMK
AO2 SLP084 CB DSNT NE MOV NE T03110256





000
SAGM31 PGUM 010155
MTRGUM
METAR PGUM 010154Z VRB06KT 10SM FEW026 SCT030 BKN041 31/26 A2980 RMK
AO2 SLP084 CB DSNT NE MOV NE T03110256




000
SAGM31 PGUM 010155
MTRGUM
METAR PGUM 010154Z VRB06KT 10SM FEW026 SCT030 BKN041 31/26 A2980 RMK
AO2 SLP084 CB DSNT NE MOV NE T03110256




000
SAGM31 PGUM 010155
MTRGUM
METAR PGUM 010154Z VRB06KT 10SM FEW026 SCT030 BKN041 31/26 A2980 RMK
AO2 SLP084 CB DSNT NE MOV NE T03110256





000
SAGM31 PGUM 010055
MTRGUM
METAR PGUM 010054Z 21005KT 10SM FEW016CB BKN050 BKN060 30/25 A2983
RMK AO2 RAB22E41 SLP092 CB VC N-NE MOV NE CB DSNT W MOV NE P0001
T03000250 $




000
SAGM31 PGUM 010055
MTRGUM
METAR PGUM 010054Z 21005KT 10SM FEW016CB BKN050 BKN060 30/25 A2983
RMK AO2 RAB22E41 SLP092 CB VC N-NE MOV NE CB DSNT W MOV NE P0001
T03000250 $





000
SAGM31 PGUM 010023
MTRGUM
SPECI PGUM 010022Z 18007G17KT 7SM -RA SCT025 BKN040 OVC055 28/23
A2984 RMK AO2 RAB22 CB DSNT SW-W MOV NE P0000




000
SAGM31 PGUM 010023
MTRGUM
SPECI PGUM 010022Z 18007G17KT 7SM -RA SCT025 BKN040 OVC055 28/23
A2984 RMK AO2 RAB22 CB DSNT SW-W MOV NE P0000





000
SAGM31 PGUM 010010
MTRGUM
SPECI PGUM 010009Z 24010KT 10SM BKN027 BKN031 BKN060 31/24 A2983 RMK
AO2 CB DSNT SW-W MOV NE





000
SAGM31 PGUM 010010
MTRGUM
SPECI PGUM 010009Z 24010KT 10SM BKN027 BKN031 BKN060 31/24 A2983 RMK
AO2 CB DSNT SW-W MOV NE




000
SAGM31 PGUM 312355
MTRGUM
METAR PGUM 312354Z 22005KT 10SM FEW024 SCT031 BKN065 30/24 A2983 RMK
AO2 SLP094 CB DSNT SW-W MOV NE T03000244 10311 20256 50010




000
SAGM31 PGUM 312355
MTRGUM
METAR PGUM 312354Z 22005KT 10SM FEW024 SCT031 BKN065 30/24 A2983 RMK
AO2 SLP094 CB DSNT SW-W MOV NE T03000244 10311 20256 50010





000
SAGM31 PGUM 312255
MTRGUM
METAR PGUM 312254Z 20005KT 10SM FEW018 SCT100 29/25 A2984 RMK AO2
SLP096 T02940250




000
SAGM31 PGUM 312255
MTRGUM
METAR PGUM 312254Z 20005KT 10SM FEW018 SCT100 29/25 A2984 RMK AO2
SLP096 T02940250





000
SAGM31 PGUM 312155
MTRGUM
METAR PGUM 312154Z 00000KT 10SM CLR 28/24 A2983 RMK AO2 SLP092
T02830239





000
SAGM31 PGUM 312155
MTRGUM
METAR PGUM 312154Z 00000KT 10SM CLR 28/24 A2983 RMK AO2 SLP092
T02830239




000
SAGM31 PGUM 312055
MTRGUM
METAR PGUM 312054Z 00000KT 10SM CLR 27/24 A2980 RMK AO2 SLP083
T02720239 53006





000
SAGM31 PGUM 312055
MTRGUM
METAR PGUM 312054Z 00000KT 10SM CLR 27/24 A2980 RMK AO2 SLP083
T02720239 53006




000
SAGM31 PGUM 311955
MTRGUM
METAR PGUM 311954Z 17003KT 10SM CLR 26/24 A2979 RMK AO2 SLP079
T02610239




000
SAGM31 PGUM 311955
MTRGUM
METAR PGUM 311954Z 17003KT 10SM CLR 26/24 A2979 RMK AO2 SLP079
T02610239





000
SAGM31 PGUM 311855
MTRGUM
METAR PGUM 311854Z 00000KT 10SM CLR 26/24 A2979 RMK AO2 SLP079
T02610239




000
SAGM31 PGUM 311855
MTRGUM
METAR PGUM 311854Z 00000KT 10SM CLR 26/24 A2979 RMK AO2 SLP079
T02610239





000
SAGM31 PGUM 311755
MTRGUM
METAR PGUM 311754Z 00000KT 10SM CLR 27/24 A2978 RMK AO2 SLP076
T02670239 10278 20261 55004




000
SAGM31 PGUM 311755
MTRGUM
METAR PGUM 311754Z 00000KT 10SM CLR 27/24 A2978 RMK AO2 SLP076
T02670239 10278 20261 55004





000
SAGM31 PGUM 311655
MTRGUM
METAR PGUM 311654Z 00000KT 10SM CLR 26/24 A2977 RMK AO2 SLP074
T02610244




000
SAGM31 PGUM 311655
MTRGUM
METAR PGUM 311654Z 00000KT 10SM CLR 26/24 A2977 RMK AO2 SLP074
T02610244





000
SAGM31 PGUM 311555
MTRGUM
METAR PGUM 311554Z 00000KT 10SM CLR 27/24 A2978 RMK AO2 SLP077
T02670244




000
SAGM31 PGUM 311555
MTRGUM
METAR PGUM 311554Z 00000KT 10SM CLR 27/24 A2978 RMK AO2 SLP077
T02670244





000
SAGM31 PGUM 311455
MTRGUM
METAR PGUM 311454Z 00000KT 10SM CLR 27/24 A2979 RMK AO2 SLP080
T02670244 58008





000
SAGM31 PGUM 311455
MTRGUM
METAR PGUM 311454Z 00000KT 10SM CLR 27/24 A2979 RMK AO2 SLP080
T02670244 58008




000
SAGM31 PGUM 311355
MTRGUM
METAR PGUM 311354Z 00000KT 10SM FEW022 27/25 A2981 RMK AO2 SLP085
T02670250 403170250




000
SAGM31 PGUM 311355
MTRGUM
METAR PGUM 311354Z 00000KT 10SM FEW022 27/25 A2981 RMK AO2 SLP085
T02670250 403170250





000
SAGM31 PGUM 311255
MTRGUM
METAR PGUM 311254Z 00000KT 10SM FEW025 27/25 A2982 RMK AO2 SLP090
T02720250




000
SAGM31 PGUM 311255
MTRGUM
METAR PGUM 311254Z 00000KT 10SM FEW025 27/25 A2982 RMK AO2 SLP090
T02720250





000
SAGM31 PGUM 311155
MTRGUM
METAR PGUM 311154Z 00000KT 10SM FEW025 26/24 A2982 RMK AO2 SLP088
T02610244 10300 20261 51017




000
SAGM31 PGUM 311055
MTRGUM
METAR PGUM 311054Z 00000KT 10SM FEW025 27/25 A2980 RMK AO2 SLP082
T02720250




000
SAGM31 PGUM 311055
MTRGUM
METAR PGUM 311054Z 00000KT 10SM FEW025 27/25 A2980 RMK AO2 SLP082
T02720250





000
SAGM31 PGUM 310955
MTRGUM
METAR PGUM 310954Z 13003KT 10SM FEW025 28/24 A2979 RMK AO2 SLP078
T02830244




000
SAGM31 PGUM 310955
MTRGUM
METAR PGUM 310954Z 13003KT 10SM FEW025 28/24 A2979 RMK AO2 SLP078
T02830244





000
SAGM31 PGUM 310855
MTRGUM
METAR PGUM 310854Z 00000KT 10SM FEW025 28/24 A2977 RMK AO2 SLP071
T02830244 53011





000
SAGM31 PGUM 310855
MTRGUM
METAR PGUM 310854Z 00000KT 10SM FEW025 28/24 A2977 RMK AO2 SLP071
T02830244 53011




000
SAGM31 PGUM 310755
MTRGUM
METAR PGUM 310754Z 00000KT 10SM FEW025 29/24 A2974 RMK AO2 SLP063
T02940239




000
SAGM31 PGUM 310755
MTRGUM
METAR PGUM 310754Z 00000KT 10SM FEW025 29/24 A2974 RMK AO2 SLP063
T02940239





000
SAGM31 PGUM 310719
MTRGUM
SPECI PGUM 310718Z 25003KT 10SM SCT025 29/25 A2974 RMK AO2




000
SAGM31 PGUM 310719
MTRGUM
SPECI PGUM 310718Z 25003KT 10SM SCT025 29/25 A2974 RMK AO2





000
SAGM31 PGUM 310655
MTRGUM
METAR PGUM 310654Z 00000KT 10SM BKN025 BKN029 BKN035 29/25 A2973 RMK
AO2 SLP061 T02940250




000
SAGM31 PGUM 310655
MTRGUM
METAR PGUM 310654Z 00000KT 10SM BKN025 BKN029 BKN035 29/25 A2973 RMK
AO2 SLP061 T02940250





000
SAGM31 PGUM 310629
MTRGUM
SPECI PGUM 310628Z 29004KT 10SM SCT023 BKN030 29/25 A2974 RMK AO2




000
SAGM31 PGUM 310629
MTRGUM
SPECI PGUM 310628Z 29004KT 10SM SCT023 BKN030 29/25 A2974 RMK AO2





000
SAGM31 PGUM 310555
MTRGUM
METAR PGUM 310554Z 30005KT 10SM SCT021 BKN027 BKN037 30/25 A2973 RMK
AO2 SLP059 CB DSNT NW MOV NW T03000250 10317 20289 56007




000
SAGM31 PGUM 310555
MTRGUM
METAR PGUM 310554Z 30005KT 10SM SCT021 BKN027 BKN037 30/25 A2973 RMK
AO2 SLP059 CB DSNT NW MOV NW T03000250 10317 20289 56007





000
SAGM31 PGUM 310544
MTRGUM
SPECI PGUM 310543Z 32004KT 10SM BKN023 BKN035 30/24 A2973 RMK AO2




000
SAGM31 PGUM 310544
MTRGUM
SPECI PGUM 310543Z 32004KT 10SM BKN023 BKN035 30/24 A2973 RMK AO2





000
SAGM31 PGUM 310523
MTRGUM
SPECI PGUM 310522Z 00000KT 10SM SCT020 BKN035 BKN048 30/26 A2974 RMK
AO2




000
SAGM31 PGUM 310523
MTRGUM
SPECI PGUM 310522Z 00000KT 10SM SCT020 BKN035 BKN048 30/26 A2974 RMK
AO2





000
SAGM31 PGUM 310455
MTRGUM
METAR PGUM 310454Z 29004KT 10SM BKN018 BKN027 BKN040 30/25 A2974 RMK
AO2 SLP062 T03000250





000
SAGM31 PGUM 310455
MTRGUM
METAR PGUM 310454Z 29004KT 10SM BKN018 BKN027 BKN040 30/25 A2974 RMK
AO2 SLP062 T03000250




000
SAGM31 PGUM 310355
MTRGUM
METAR PGUM 310354Z 29005KT 10SM SCT018 BKN025 BKN040 29/26 A2974 RMK
AO2 SLP061 T02890256




000
SAGM31 PGUM 310355
MTRGUM
METAR PGUM 310354Z 29005KT 10SM SCT018 BKN025 BKN040 29/26 A2974 RMK
AO2 SLP061 T02890256





000
SAGM31 PGUM 310343
MTRGUM
SPECI PGUM 310342Z 27004KT 10SM SCT018 BKN025 BKN043 29/25 A2974 RMK
AO2




000
SAGM31 PGUM 310328
MTRGUM
SPECI PGUM 310327Z 27006KT 10SM SCT018 BKN034 BKN041 30/26 A2974 RMK
AO2




000
SAGM31 PGUM 310328
MTRGUM
SPECI PGUM 310327Z 27006KT 10SM SCT018 BKN034 BKN041 30/26 A2974 RMK
AO2





000
SAGM31 PGUM 310256
MTRGUM
METAR PGUM 310254Z COR 33005KT 10SM SCT016CB BKN028 BKN042 30/25
A2975 RMK AO2 SLP066 CB NW MOV NW T03000250 58014





000
SAGM31 PGUM 310256
MTRGUM
METAR PGUM 310254Z COR 33005KT 10SM SCT016CB BKN028 BKN042 30/25
A2975 RMK AO2 SLP066 CB NW MOV NW T03000250 58014




000
SAGM31 PGUM 310255
MTRGUM
METAR PGUM 310254Z 33005KT 10SM SCT016 BKN028 BKN042 30/25 A2975 RMK
AO2 SLP066 CB NW MOV NW T03000250 58014





000
SAGM31 PGUM 310255
MTRGUM
METAR PGUM 310254Z 33005KT 10SM SCT016 BKN028 BKN042 30/25 A2975 RMK
AO2 SLP066 CB NW MOV NW T03000250 58014




000
SAGM31 PGUM 310155
MTRGUM
METAR PGUM 310154Z 16005KT 10SM SCT021 BKN030 BKN047 31/25 A2978 RMK
AO2 SLP077 T03060250




000
SAGM31 PGUM 310155
MTRGUM
METAR PGUM 310154Z 16005KT 10SM SCT021 BKN030 BKN047 31/25 A2978 RMK
AO2 SLP077 T03060250





000
SAGM31 PGUM 310139
MTRGUM
SPECI PGUM 310138Z VRB04KT 10SM BKN021 BKN028 BKN033 31/25 A2979 RMK
AO2




000
SAGM31 PGUM 310139
MTRGUM
SPECI PGUM 310138Z VRB04KT 10SM BKN021 BKN028 BKN033 31/25 A2979 RMK
AO2





000
SAGM31 PGUM 310055
MTRGUM
METAR PGUM 310054Z VRB04KT 10SM SCT021 31/25 A2979 RMK AO2 SLP079
T03060250




000
SAGM31 PGUM 310055
MTRGUM
METAR PGUM 310054Z VRB04KT 10SM SCT021 31/25 A2979 RMK AO2 SLP079
T03060250





    US Dept of Commerce
    National Oceanic and Atmospheric Administration
    National Weather Service
    1325 East West Highway
    Silver Spring, MD 20910
    Page Author: NWS Internet Services Team
Disclaimer
Information Quality
Credits
Glossary
Privacy Policy
Freedom of Information Act (FOIA)
About Us
Career Opportunities